STARLINK-30761, 58134

Orbit data source: Space-Track

STARLINK-30761, 58134 is a payload satellite owned by SpaceX/Seattle (US) in LEO that was launched on Sun, 22 Oct 2023 UTC via an FALCON 9 launch vehicle from the Air Force Eastern Test Range (AFETR). Payload-class satellites include a variety of spacecraft equipped with specific instruments for various scientific and technological missions. These include communications satellites like Starlink; space stations such as the ISS; scientific satellites like the Hubble; Earth observation satellites from companies like Planet Labs, Umbra, and HawkEye 360; GPS; miniature CubeSats for education and research; and military/defense satellites.

Loading next visibility...
Identifier
58134, 2023-162S
Orbit
LEO
Country
Flag of USUS
Related business
Manufacturer
SpaceX/Seattle
Mission
Operational Commercial Communications
Bus & Motor
STARLINK V2M, Unknown motor
Mass
730 kg wet, ~700 kg dry
Launch date (UTC)
2023-10-22 (3 years ago)
Launch vehicle
FALCON 9
Launch site
Air Force Eastern Test Range (AFETR)
Object type
Payload
Rocket body
Debris
Shape & HBR
Box + 2 Pan, 17.7 m
Radar Cross Section
33.884 m², Large (>1 m²)

Expand to show TLE details & history
Last TLE update: 2 days ago

TLE from 2 days ago
0 STARLINK-30761
1 58134U 23162S   26171.33313485  .00000473  00000-0  26728-4 0  9995
2 58134  43.0024 272.9245 0000818 266.7068  93.3690 15.27568680148000
Epoch: 2026-06-20T07:59Z
TLE epoch observation values (Epoch: 2026-06-20T07:59:42.851Z)
Latitude
-0.00001°
Longitude
-115.55332°
Altitude
482.892 km
Speed
7.626 km/s
True Right ascension
18h 11m 41s
True Declination
0° 00' 00"
Sunlit
Object was in full shadow at epoch
Visualization orbit readout
Latitude
Unknown
Longitude
Unknown
Altitude
Unknown
Speed
Unknown
Apparent Right ascension
Unknown
Apparent Declination
Unknown
Sunlit
N/A
Visualization observer readout
Local Sidereal Time
00:50:47
Azimuth
Unknown
Elevation
Unknown
Doppler factor
Unknown
Orbital elements
Apogee altitude
485.589 km
Perigee altitude
484.466 km
Semi-major axis
6,863.165 km
Eccentricity
0.00008
Inclination
43.0024°
RAAN
272.9245°
Arg. of periapsis
266.7068°
True anomaly
93.37836°
Mean anomaly
93.369°
Eccentric anomaly
93.37368°
Mean motion
3.8173 °/min
Orbital period
94.31 mins
BSTAR
0.000026728
Loading maneuver chart data...
Computing Atmospheric mass density...
Loading historical data...
Loading historical data...
Loading historical data...
Loading historical data...
Loading historical data...
Loading historical data...
Loading historical data...

Documentation

Showing up to 5 results
|